Location: Goudex
(43.3760°N, 0.9543°E)
Time: 14:03:21
(UTC+00:00)

Cosmos 2322 Rocket - Pass Details

Date: 20 November 2019
Orbit: 832 x 851 km, 71.0° (Epoch: 12 December)

Event Time Altitude Azimuth Distance (km) Brightness Sun altitude
Exits shadow 04:19:27 38° 0° (N) 1,269 3.0 -28.1°
Maximum altitude 04:21:28 60° 62° (ENE) 967 2.6 -27.7°
Drops below altitude 10° 04:27:04 10° 142° (SE) 2,467 5.1 -26.7°
Sets 04:29:32 0° 146° (SE) 3,400 5.8 -26.3°
